Weather History for KMJQ - June, 2013

Change the Weather History Date:

Sunday, June 23, 2013

  Actual Average Record
Temperature  
Mean Temperature 73 °F -  
Max Temperature 78 °F 78 °F 91 °F (2005)
Min Temperature 68 °F 57 °F 53 °F (2004)
Cooling Degree Days 8    
Growing Degree Days 23 (Base 50)    
Moisture  
Dew Point 63 °F    
Average Humidity 70    
Maximum Humidity 83    
Minimum Humidity 54    
Precipitation  
Precipitation 0.06 in - - ()
Sea Level Pressure  
Sea Level Pressure 29.83 in    
Wind  
Wind Speed 11 mph (SW)    
Max Wind Speed 24 mph    
Max Gust Speed 34 mph    
Visibility 10 miles    
Events Rain , Thunderstorm    
Averages and records for this station are not official NWS values.
T = Trace of Precipitation, MM = Missing Value Source: NWS Daily Summary

Daily Weather History Graph

Daily Weather History Graph

Search for Another Location

Airport or City:

Trip Planner

Search our weather history database for the weather conditions in past years. The results will help you decide how hot, cold, wet, or windy it might be!

Date:

Astronomy

Jun. 23, 2013 Rise Set
Actual Time 5:39 AM CDT 9:05 PM CDT
Civil Twilight 5:03 AM CDT 9:41 PM CDT
Nautical Twilight 4:15 AM CDT 10:28 PM CDT
Astronomical Twilight 3:16 AM CDT 11:28 PM CDT
Moon 9:15 PM CDT (6/23) 5:59 AM CDT (6/23)
Length of Visible Light 16h 38m
Length of Day
15h 26m
Full, 100% of the Moon is Illuminated
Jun 23
Full
Jun 29
Last Quarter
Jul 8
New
Jul 15
First Quarter
Jul 22
Full

Hourly Weather History & Observations

Time (CDT) Temp. Dew Point Humidity Pressure Visibility Wind Dir Wind Speed Gust Speed Precip Events Conditions
12:14 AM 71.6 °F 64.4 °F 78% 29.79 in 10.0 mi ESE 9.2 mph - N/A   Clear
12:34 AM 71.6 °F 64.4 °F 78% 29.79 in 10.0 mi ESE 10.4 mph - N/A   Clear
12:54 AM 71.6 °F 64.4 °F 78% 29.79 in 10.0 mi SE 5.8 mph - N/A   Clear
1:14 AM 71.6 °F 64.4 °F 78% 29.79 in 10.0 mi ESE 11.5 mph - N/A   Clear
1:33 AM 71.6 °F 66.2 °F 83% 29.77 in 10.0 mi SE 12.7 mph - N/A   Mostly Cloudy
1:54 AM 73.4 °F 66.2 °F 78% 29.78 in 10.0 mi SSE 13.8 mph - N/A   Overcast
2:14 AM 73.4 °F 64.4 °F 73% 29.77 in 10.0 mi SE 11.5 mph - N/A   Overcast
2:34 AM 73.4 °F 64.4 °F 73% 29.76 in 10.0 mi SE 11.5 mph - N/A   Mostly Cloudy
2:53 AM 73.4 °F 64.4 °F 73% 29.75 in 10.0 mi SSE 16.1 mph 21.9 mph N/A   Mostly Cloudy
3:14 AM 73.4 °F 64.4 °F 73% 29.74 in 10.0 mi SSE 15.0 mph 24.2 mph N/A   Mostly Cloudy
3:34 AM 73.4 °F 64.4 °F 73% 29.73 in 10.0 mi SSE 18.4 mph 25.3 mph N/A Rain Light Rain
3:54 AM 73.4 °F 66.2 °F 78% 29.74 in 7.0 mi South 15.0 mph 24.2 mph 0.01 in Rain , Thunderstorm Rain
4:14 AM 73.4 °F 66.2 °F 78% 29.75 in 7.0 mi South 24.2 mph 34.5 mph 0.04 in Rain , Thunderstorm Thunderstorms and Rain
4:33 AM 71.6 °F 66.2 °F 83% 29.73 in 7.0 mi SW 13.8 mph 25.3 mph 0.04 in Rain , Thunderstorm Light Thunderstorms and Rain
4:54 AM 73.4 °F 66.2 °F 78% 29.74 in 10.0 mi SSW 16.1 mph 26.5 mph 0.04 in Thunderstorm Scattered Clouds
5:14 AM 69.8 °F 62.6 °F 78% 29.76 in 10.0 mi WSW 19.6 mph 32.2 mph 0.01 in   Scattered Clouds
5:34 AM 68.0 °F 62.6 °F 83% 29.78 in 10.0 mi WSW 12.7 mph - 0.01 in   Clear
5:54 AM 68.0 °F 62.6 °F 83% 29.80 in 10.0 mi WSW 12.7 mph - 0.01 in   Clear
6:14 AM 68.0 °F 62.6 °F 83% 29.81 in 10.0 mi SW 10.4 mph - N/A Thunderstorm Mostly Cloudy
6:34 AM 68.0 °F 60.8 °F 78% 29.81 in 10.0 mi SW 11.5 mph - N/A   Mostly Cloudy
6:54 AM 68.0 °F 60.8 °F 78% 29.80 in 10.0 mi SW 6.9 mph - N/A   Scattered Clouds
7:14 AM 68.0 °F 60.8 °F 78% 29.79 in 10.0 mi SSW 8.1 mph - N/A   Mostly Cloudy
7:34 AM 68.0 °F 60.8 °F 78% 29.79 in 10.0 mi SSW 9.2 mph - N/A   Mostly Cloudy
7:54 AM 68.0 °F 60.8 °F 78% 29.75 in 10.0 mi South 6.9 mph - N/A   Mostly Cloudy
8:13 AM 68.0 °F 60.8 °F 78% 29.70 in 10.0 mi SE 13.8 mph - N/A   Scattered Clouds
8:34 AM 68.0 °F 59.0 °F 73% 29.78 in 10.0 mi SSW 8.1 mph 18.4 mph N/A   Clear
8:54 AM 69.8 °F 60.8 °F 73% 29.80 in 10.0 mi West 9.2 mph - N/A   Clear
9:13 AM 68.0 °F 60.8 °F 78% 29.78 in 10.0 mi West 10.4 mph - N/A   Clear
9:34 AM 69.8 °F 60.8 °F 73% 29.80 in 10.0 mi WSW 9.2 mph - N/A   Clear
9:54 AM 71.6 °F 60.8 °F 69% 29.81 in 10.0 mi SW 11.5 mph - N/A   Clear
10:14 AM 71.6 °F 60.8 °F 69% 29.83 in 10.0 mi SW 11.5 mph - N/A   Clear
10:34 AM 71.6 °F 60.8 °F 69% 29.83 in 10.0 mi SW 13.8 mph - N/A   Clear
10:53 AM 71.6 °F 60.8 °F 69% 29.84 in 10.0 mi SW 12.7 mph - N/A   Clear
11:14 AM 71.6 °F 60.8 °F 69% 29.86 in 10.0 mi SW 13.8 mph 19.6 mph N/A   Clear
11:34 AM 73.4 °F 62.6 °F 69% 29.85 in 10.0 mi WSW 15.0 mph 19.6 mph N/A   Clear
11:53 AM 73.4 °F 62.6 °F 69% 29.85 in 10.0 mi WSW 16.1 mph - N/A   Clear
12:14 PM 73.4 °F 62.6 °F 69% 29.85 in 10.0 mi WSW 12.7 mph 19.6 mph N/A   Clear
12:34 PM 75.2 °F 62.6 °F 65% 29.85 in 10.0 mi WSW 15.0 mph - N/A   Clear
12:54 PM 75.2 °F 62.6 °F 65% 29.86 in 10.0 mi WSW 13.8 mph 19.6 mph N/A   Clear
1:14 PM 75.2 °F 62.6 °F 65% 29.86 in 10.0 mi WSW 16.1 mph 21.9 mph N/A   Clear
1:34 PM 77.0 °F 62.6 °F 61% 29.87 in 10.0 mi WSW 15.0 mph 20.7 mph N/A   Clear
1:54 PM 77.0 °F 62.6 °F 61% 29.87 in 10.0 mi WSW 17.3 mph - N/A   Clear
2:14 PM 77.0 °F 62.6 °F 61% 29.87 in 10.0 mi SW 13.8 mph - N/A   Clear
2:34 PM 77.0 °F 64.4 °F 65% 29.87 in 10.0 mi West 13.8 mph 18.4 mph N/A   Clear
2:53 PM 77.0 °F 62.6 °F 61% 29.87 in 10.0 mi West 16.1 mph 21.9 mph N/A   Clear
3:14 PM 77.0 °F 62.6 °F 61% 29.87 in 10.0 mi West 13.8 mph 17.3 mph N/A   Clear
3:34 PM 78.8 °F 62.6 °F 57% 29.87 in 10.0 mi West 11.5 mph - N/A   Clear
3:54 PM 78.8 °F 62.6 °F 57% 29.86 in 10.0 mi West 9.2 mph - N/A   Clear
4:14 PM 78.8 °F 60.8 °F 54% 29.87 in 10.0 mi WSW 12.7 mph 18.4 mph N/A   Clear
4:34 PM 78.8 °F 60.8 °F 54% 29.87 in 10.0 mi West 10.4 mph 16.1 mph N/A   Clear
4:54 PM 78.8 °F 60.8 °F 54% 29.87 in 10.0 mi WSW 13.8 mph - N/A   Clear
5:14 PM 78.8 °F 62.6 °F 57% 29.87 in 10.0 mi West 10.4 mph 16.1 mph N/A   Clear
5:33 PM 78.8 °F 62.6 °F 57% 29.87 in 10.0 mi WSW 11.5 mph - N/A   Clear
5:54 PM 78.8 °F 62.6 °F 57% 29.87 in 10.0 mi West 8.1 mph - N/A   Clear
6:13 PM 78.8 °F 62.6 °F 57% 29.87 in 10.0 mi West 10.4 mph - N/A   Clear
6:34 PM 78.8 °F 60.8 °F 54% 29.88 in 10.0 mi West 8.1 mph - N/A   Clear
6:54 PM 78.8 °F 60.8 °F 54% 29.88 in 10.0 mi WSW 8.1 mph - N/A   Clear
7:13 PM 78.8 °F 60.8 °F 54% 29.88 in 10.0 mi West 8.1 mph - N/A   Clear
7:34 PM 78.8 °F 62.6 °F 57% 29.88 in 10.0 mi West 8.1 mph - N/A   Clear
7:54 PM 78.8 °F 60.8 °F 54% 29.89 in 10.0 mi West 5.8 mph - N/A   Clear
8:13 PM 77.0 °F 62.6 °F 61% 29.89 in 10.0 mi WNW 6.9 mph - N/A   Clear
8:34 PM 77.0 °F 62.6 °F 61% 29.89 in 10.0 mi WNW 3.5 mph - N/A   Clear
8:54 PM 73.4 °F 62.6 °F 69% 29.89 in 10.0 mi Calm Calm - N/A   Clear
9:13 PM 73.4 °F 62.6 °F 69% 29.90 in 10.0 mi Calm Calm - N/A   Clear
9:34 PM 73.4 °F 62.6 °F 69% 29.90 in 10.0 mi Calm Calm - N/A   Clear
9:54 PM 73.4 °F 62.6 °F 69% 29.91 in 10.0 mi Calm Calm - N/A   Clear
10:14 PM 71.6 °F 62.6 °F 73% 29.91 in 10.0 mi Calm Calm - N/A   Clear
10:34 PM 69.8 °F 62.6 °F 78% 29.92 in 10.0 mi Calm Calm - N/A   Scattered Clouds
10:53 PM 69.8 °F 62.6 °F 78% 29.93 in 10.0 mi SSE 3.5 mph - N/A   Scattered Clouds
11:14 PM 69.8 °F 62.6 °F 78% 29.94 in 10.0 mi South 3.5 mph - N/A   Clear
11:34 PM 69.8 °F 62.6 °F 78% 29.94 in 10.0 mi Calm Calm - N/A   Clear
11:53 PM 68.0 °F 62.6 °F 83% 29.94 in 10.0 mi Calm Calm - N/A   Clear